Vertical_Velocity
-4 -10 2 3 5 4 -0 3 -0 7 6 -5 1 -0 1 4 -1 -2 2 1 1 2 2 0 -1 -4 -0 -2 -0 1 1 -0 -3 -2 -3 0 2 -1 -2 -2 2 2 1 1
-4 -6 4 -6 1 -1 1 -3 5 5 6 -10 0 4 2 3 2 1 1 1 1 1 2 0 -1 -4 -1 -2 -0 -1 2 2 -1 -2 -1 -2 -4 -1 -2 -3 3 -1 -2 -1
-4 11 -2 -2 -1 3 -4 -0 5 -5 8 -4 -2 2 1 1 2 2 1 -1 -1 -2 1 0 -0 -2 -2 -2 -0 1 1 -0 -2 -3 -0 -1 -2 -1 -3 -2 1 -1 -0 3
-8 3 -5 -1 -1 -8 4 1 -2 -0 -6 1 -8 -9 4 1 2 -2 -2 -3 -3 -3 1 -0 0 -1 -2 -2 -0 2 1 -0 -3 -1 -3 -1 3 1 -0 -1 -2 -4 -3 -1
20 9 1 -1 6 -3 6 -2 -4 -4 -3 -9 11 -17 11 2 -1 1 -1 -2 0 -0 -0 -0 0 -1 -3 -3 -0 3 1 -1 -2 0 -0 -6 -1 -2 -2 4 -1 -3 -0 1
7 -2 -7 6 -1 -1 4 -2 -1 -1 -4 -9 11 -4 11 1 -3 4 -4 -2 -3 -0 -0 -1 0 -1 -1 -4 1 1 3 0 -5 1 -2 -3 -1 -2 0 -1 9 14 2 -1
12 3 2 -3 1 -0 -2 -0 0 -4 -4 5 -2 -8 9 -0 -2 -1 -4 -1 -1 0 -0 -2 0 0 -0 -5 1 -0 3 2 -0 -0 -1 0 -1 -0 -0 -2 1 8 5 5
0 -2 1 8 3 -0 1 2 -1 -6 2 2 -6 -9 3 4 2 0 -1 -2 -2 3 -2 -3 1 0 -0 -3 -1 0 0 2 0 -1 1 1 -1 -1 -1 -1 -2 24 1 3
-3 0 -2 -6 2 -1 2 1 1 -1 -9 -7 3 2 2 -1 -1 -5 -2 1 -3 3 -2 -3 1 0 -1 -1 -2 1 1 -0 1 -1 -2 -1 1 -3 -2 1 1 11 1 2
1 0 -0 -1 -1 -3 -7 1 -0 -3 -6 -0 -5 -2 2 0 1 2 6 -3 -4 1 -2 -3 1 0 -1 -2 -3 1 -1 2 -2 -1 -1 -2 1 -2 -3 -0 -4 2 -0 -2
5 2 15 -7 -8 6 0 -1 -2 -1 -2 -5 -7 5 -4 4 3 3 -4 -2 -1 -1 -1 -2 -1 1 -1 -2 -2 1 -1 1 0 -2 0 -1 -0 -0 -2 -1 2 -0 1 2
13 6 -9 4 2 1 -5 -0 -3 -5 1 -0 -14 11 1 2 0 -0 -5 0 1 0 1 -1 -1 2 -1 -2 -2 0 -1 2 1 -2 -0 -1 -1 1 -1 -1 1 1 1 1
10 -13 -2 -5 -4 -8 -6 5 -2 3 -4 -4 -8 14 0 1 -2 1 -4 -2 -2 2 -0 -0 -1 0 0 -1 -2 0 0 0 2 -0 -2 -0 -1 -2 -0 -0 0 -1 2 -0
-0 -6 -8 -6 34 5 -6 1 3 -3 -4 2 -6 2 5 -4 -3 -5 6 0 -2 1 2 0 -1 1 1 -2 -2 1 1 1 1 1 -1 -0 0 1 -2 1 3 -1 -1 -0
-6 -11 3 4 6 -8 0 -1 -2 -6 1 -6 8 -7 2 -1 -7 3 -2 -1 0 -1 1 -2 0 -1 2 -1 -2 -2 2 1 0 0 -1 -1 0 1 -2 -2 -1 0 -0 2
-11 -5 -1 -0 2 -1 -19 -5 -3 -2 -3 1 -3 -4 -1 -0 -3 1 4 -6 0 -1 2 -2 0 1 1 2 -0 -2 -0 1 0 -1 -1 -3 -3 -2 0 2 -0 -1 -1 -0
-10 1 3 -2 1 8 -53 8 -10 -2 -4 3 -11 10 -1 -2 -5 6 -5 -7 -0 -5 -1 0 -0 1 -1 -0 -0 -1 -1 1 -1 0 -0 -1 -0 -1 -2 0 1 1 1 1
-1 -3 -0 -2 1 -47 36 -4 1 -1 -1 2 -1 1 4 -6 -4 -1 -2 -4 -4 -8 -5 1 -3 0 3 0 1 1 1 -1 1 -2 -0 -2 -2 -3 -3 -1 1 1 -1 -0
7 -1 -4 -8 -4 -1 -9 9 7 3 5 2 -0 1 -8 -3 -2 -0 5 -6 4 2 -7 -3 -4 -5 -3 0 -2 -0 1 2 1 -1 -0 0 1 -2 -2 -2 -2 -2 -1 -1
6 4 -7 -11 -19 -20 24 5 11 6 -17 2 -3 -1 -1 -8 -7 6 -8 -3 -5 -0 -0 -5 1 -3 -5 1 -1 -3 1 1 3 -1 -2 -2 -1 -2 -2 -2 -1 -1 -2 -3
3 0 -23 6 -18 -6 4 3 -1 -24 31 5 -0 1 -1 -10 -8 13 -6 1 -2 -5 -2 -6 -4 3 -8 -7 -2 -3 -1 1 -1 3 0 -1 -1 -1 -2 -2 -1 -2 -2 -3
7 11 -14 6 -24 -26 8 -2 -4 23 8 4 -1 -4 -4 -2 -10 4 1 -4 -3 -0 -2 5 -5 -2 -1 -4 3 -2 -0 -1 -3 -1 1 1 -1 -1 -1 -1 -1 -1 0 0
-6 -26 -16 -1 31 -3 11 7 7 -3 4 -1 2 -3 -4 2 -2 2 -3 -3 -4 -3 3 -0 2 -6 -2 -3 -1 1 -4 -2 -3 1 1 -0 0 1 -1 -1 -2 -1 -1 -2
2 -4 -5 2 -15 1 5 -0 1 -1 -9 5 -2 -1 -3 -6 -4 -0 -1 1 -4 -6 -2 4 2 2 -1 -3 1 -6 -2 -1 -1 -3 -3 -2 -0 -1 -2 -1 2 1 -1 -1
-7 4 1 -6 -9 -9 -3 11 4 -4 -3 3 -1 -1 -1 -3 -5 1 -2 0 -2 -3 -3 0 2 4 3 3 1 -6 -4 -2 -1 -1 -2 -2 -2 1 -1 -1 -0 2 0 -1
-6 -2 -15 -31 29 10 8 10 -3 -5 4 -2 -7 2 -5 -1 -2 -3 2 1 -1 2 -1 1 -1 5 -0 0 -2 -6 -1 -1 -2 -3 -2 1 -2 -3 -2 -2 -4 -1 -1 -1
Height
5807 5807 5813 5816 5817 5816 5816 5815 5815 5816 5817 5814 5815 5814 5815 5813 5811 5807 5804 5803 5800 5797 5792 5787 5783 5778 5772 5767 5759 5752 5748 5742 5735 5729 5723 5717 5712 5706 5702 5698 5693 5691 5690 5689
5801 5807 5809 5808 5808 5810 5810 5809 5810 5812 5813 5809 5809 5810 5811 5809 5809 5805 5802 5800 5797 5794 5790 5786 5782 5777 5771 5766 5760 5753 5750 5744 5738 5733 5727 5721 5717 5713 5709 5705 5701 5697 5694 5695
5798 5805 5800 5801 5803 5803 5805 5805 5807 5808 5807 5805 5804 5804 5807 5806 5804 5803 5799 5797 5794 5792 5788 5784 5781 5776 5771 5766 5760 5755 5751 5747 5741 5736 5732 5726 5721 5718 5716 5712 5710 5707 5705 5705
5791 5795 5795 5795 5796 5799 5800 5802 5801 5801 5801 5802 5799 5799 5803 5803 5801 5798 5796 5794 5791 5789 5786 5783 5780 5775 5771 5766 5761 5756 5753 5749 5744 5740 5736 5731 5728 5725 5724 5722 5719 5716 5715 5715
5787 5789 5789 5788 5793 5794 5796 5795 5793 5795 5795 5796 5797 5796 5797 5799 5797 5794 5792 5790 5789 5787 5783 5781 5778 5775 5771 5766 5762 5758 5755 5752 5748 5745 5740 5737 5733 5732 5730 5728 5727 5726 5724 5723
5778 5781 5781 5783 5786 5787 5789 5789 5789 5790 5791 5793 5793 5793 5793 5793 5792 5791 5789 5787 5786 5784 5781 5779 5777 5774 5771 5767 5763 5759 5757 5755 5752 5750 5746 5743 5739 5737 5736 5736 5734 5733 5731 5731
5772 5775 5776 5777 5779 5781 5783 5784 5784 5784 5787 5790 5788 5788 5787 5790 5789 5788 5786 5785 5784 5782 5779 5778 5776 5774 5772 5768 5765 5761 5758 5757 5755 5753 5751 5748 5745 5744 5742 5741 5740 5740 5738 5739
5765 5767 5771 5773 5774 5778 5778 5778 5778 5780 5783 5785 5784 5784 5784 5787 5787 5786 5784 5782 5781 5781 5778 5776 5775 5774 5772 5768 5766 5764 5760 5758 5756 5756 5754 5753 5750 5749 5748 5746 5746 5743 5744 5744
5758 5762 5766 5765 5768 5771 5771 5772 5777 5774 5776 5779 5781 5782 5783 5784 5784 5782 5781 5780 5779 5778 5776 5775 5775 5774 5772 5769 5767 5766 5763 5760 5759 5758 5757 5757 5755 5754 5753 5753 5752 5751 5750 5750
5752 5755 5760 5762 5762 5762 5763 5769 5769 5770 5771 5773 5775 5777 5779 5780 5779 5781 5780 5777 5777 5776 5775 5774 5774 5773 5773 5770 5768 5767 5765 5763 5760 5759 5759 5760 5759 5758 5758 5758 5757 5757 5757 5758
5742 5747 5754 5754 5754 5756 5757 5758 5763 5766 5766 5768 5770 5775 5776 5776 5778 5778 5777 5776 5775 5774 5775 5774 5774 5773 5773 5771 5769 5769 5767 5764 5762 5761 5760 5762 5762 5762 5762 5761 5762 5763 5762 5763
5734 5738 5740 5748 5750 5749 5751 5753 5757 5759 5763 5764 5767 5771 5772 5774 5775 5775 5771 5772 5773 5773 5774 5774 5774 5774 5774 5772 5771 5771 5770 5767 5765 5764 5762 5763 5765 5766 5765 5766 5766 5767 5767 5768
5723 5726 5732 5737 5740 5742 5743 5746 5750 5754 5757 5758 5762 5768 5769 5770 5771 5773 5772 5771 5771 5772 5773 5774 5774 5774 5774 5773 5773 5773 5772 5771 5769 5768 5766 5766 5767 5769 5770 5770 5771 5772 5772 5774
5712 5718 5722 5728 5737 5738 5739 5742 5746 5749 5750 5753 5757 5762 5765 5765 5767 5768 5770 5769 5768 5771 5772 5773 5774 5775 5775 5774 5774 5775 5775 5775 5774 5772 5771 5771 5771 5772 5774 5775 5776 5776 5778 5779
5703 5710 5717 5723 5728 5729 5732 5737 5740 5741 5746 5746 5755 5758 5761 5760 5762 5764 5766 5767 5769 5770 5771 5773 5774 5775 5776 5776 5776 5777 5778 5778 5777 5776 5776 5775 5775 5775 5777 5779 5780 5781 5782 5784
5694 5704 5709 5713 5720 5722 5724 5727 5730 5733 5738 5740 5746 5752 5757 5757 5758 5763 5763 5764 5768 5769 5770 5772 5774 5775 5776 5778 5778 5778 5779 5781 5780 5780 5780 5779 5780 5780 5780 5782 5784 5785 5786 5788
5685 5693 5699 5704 5712 5713 5714 5719 5724 5726 5730 5737 5739 5749 5752 5751 5753 5758 5760 5761 5763 5766 5767 5768 5772 5774 5775 5777 5779 5779 5780 5782 5783 5783 5784 5784 5784 5784 5784 5786 5787 5789 5791 5792
5676 5684 5688 5694 5702 5701 5709 5718 5721 5722 5727 5732 5736 5743 5747 5747 5749 5753 5756 5758 5761 5764 5766 5766 5768 5772 5774 5777 5779 5780 5781 5782 5784 5785 5786 5787 5787 5788 5788 5789 5792 5793 5794 5796
5664 5673 5679 5683 5690 5697 5702 5707 5714 5717 5722 5728 5732 5736 5739 5740 5744 5749 5753 5754 5756 5761 5764 5765 5766 5768 5772 5774 5778 5780 5781 5783 5784 5785 5787 5788 5789 5790 5791 5792 5794 5796 5797 5799
5652 5661 5669 5675 5680 5684 5694 5701 5709 5714 5715 5722 5726 5729 5732 5735 5739 5749 5748 5751 5753 5756 5760 5762 5765 5766 5770 5772 5775 5779 5781 5782 5784 5786 5787 5788 5790 5791 5792 5794 5795 5796 5798 5799
5637 5646 5654 5661 5669 5677 5684 5692 5699 5704 5717 5720 5721 5723 5725 5729 5739 5744 5741 5746 5749 5752 5756 5759 5762 5764 5766 5768 5771 5775 5779 5781 5782 5786 5787 5788 5790 5791 5792 5793 5794 5796 5797 5798
5627 5637 5644 5653 5660 5668 5676 5682 5689 5700 5710 5712 5714 5716 5720 5726 5731 5733 5738 5741 5744 5748 5751 5756 5759 5761 5763 5766 5769 5772 5776 5776 5779 5783 5785 5787 5788 5790 5791 5792 5793 5794 5796 5797
5610 5624 5638 5645 5655 5662 5668 5676 5686 5692 5702 5706 5708 5712 5714 5718 5724 5728 5732 5736 5740 5742 5748 5752 5755 5756 5760 5763 5764 5768 5770 5773 5776 5779 5782 5783 5785 5788 5789 5790 5790 5792 5793 5793
5601 5613 5625 5636 5645 5654 5661 5669 5677 5685 5695 5695 5701 5704 5707 5713 5718 5721 5726 5731 5735 5737 5740 5744 5748 5752 5755 5759 5762 5762 5764 5767 5771 5775 5777 5778 5781 5783 5784 5786 5787 5788 5789 5790
5591 5605 5615 5625 5634 5644 5651 5658 5668 5674 5686 5687 5694 5697 5700 5703 5710 5714 5718 5722 5727 5731 5734 5738 5744 5748 5752 5754 5756 5757 5759 5762 5765 5768 5771 5773 5775 5777 5779 5781 5782 5783 5784 5785
5581 5594 5603 5616 5629 5636 5642 5649 5659 5670 5677 5681 5686 5689 5692 5697 5702 5705 5709 5713 5717 5722 5727 5731 5736 5741 5746 5749 5750 5751 5754 5756 5758 5761 5764 5767 5769 5771 5773 5775 5777 5778 5778 5779